Regional Weather Roundup
Issued by NWS

Current Version | Previous Version | Text Only | Print | Product List | Glossary Off
Versions: 1 2 3 4 5 6 7 8 9 10 11 12 13 14 15 16 17 18 19 20 21 22 23 24 25 26 27 28 29 30 31 32 33 34 35 36 37 38 39 40 41 42 43 44 45 46 47 48 49 50

000
ASUS42 KFFC 221910
RWRGA
WEATHER ROUNDUP FOR GEORGIA
NATIONAL WEATHER SERVICE PEACHTREE CITY GA
300 PM EDT TUE AUG 22 2017

NOTE: "FAIR" INDICATES FEW OR NO CLOUDS BELOW 12,000 FEET WITH NO
SIGNIFICANT WEATHER AND/OR OBSTRUCTIONS TO VISIBILITY.

* = USE WITH CAUTION. THE STATIONS MARKED WITH AN ASTERISK MAY NOT
REPORT WEATHER SUCH AS PRECIPITATION, FOG, OR THUNDER AND ARE NOT
QUALITY CONTROLLED BY NWS.

THE REMARK "TC" DENOTES TEMPERATURE READING IN DEGREES CELSIUS.

GAZ001>058-222000-
NORTH GEORGIA

CITY           SKY/WX    TMP DP  RH WIND       PRES   REMARKS
ATLANTA        MOSUNNY   92  68  45 W6        30.08F HX  96
ATHENS         SUNNY     87  73  62 W3        30.07F HX  94
CHAMBLEE       SUNNY     91  64  40 CALM      30.07F HX  92
PEACHTREE CITY SUNNY     92  71  50 VRB6      30.08F HX  98
ROME           MOSUNNY   94  69  44 SW8       30.04F HX  99
WEST ATLANTA   SUNNY     92  72  51 VRB3      30.07F HX  99
GAINESVILLE    MOSUNNY   91  65  41 W8        30.11F HX  93
CARTERSVILLE   CLOUDY    89  70  53 S8        30.07F HX  94


CITY           SKY/WX    TMP DP  RH WIND       PRES   REMARKS
LAWRENCEVILLE* PTSUNNY   90  70  51 CALM      30.09  HX  95
MARIETTA       PTSUNNY   90  67  46 CALM      30.08F HX  93
KENNESAW*      MOSUNNY   91  66  43 W8        30.09F HX  93
CANTON*        SUNNY     90  70  51 CALM      30.09F HX  95
$$

GAZ059>098-102>109-222000-
CENTRAL GEORGIA

CITY           SKY/WX    TMP DP  RH WIND       PRES   REMARKS
AUGUSTA-BUSH   LGT RAIN  87  76  69 SW5       30.05F HX  97
AUGUSTA-DANIEL SUNNY     92  69  47 S8        30.07F HX  97
COLUMBUS       MOSUNNY   94  69  44 NW8       30.06F HX  99
MACON          TSTM      77  69  76 E5        30.08F
ROBINS AFB     PTSUNNY   81  70  69 N16G23    30.09R THUNDER


CITY           SKY/WX    TMP DP  RH WIND       PRES   REMARKS
LAGRANGE*      MOSUNNY   94  72  48 W6        30.07F HX 101
SYLVANIA*      PTSUNNY   89  76  65 CALM      30.07F HX 100
MILLEDGEVILLE* CLOUDY    86  77  74 CALM      30.07S HX  97
$$

GAZ099>101-110>166-222000-
SOUTH GEORGIA

CITY           SKY/WX    TMP DP  RH WIND       PRES   REMARKS
SAVANNAH       CLOUDY    85  73  67 SE5       30.07F HX  91
VALDOSTA       PTSUNNY   82  76  81 E5        30.08F HAZE
ALMA           LGT RAIN  83  78  85 CALM      30.07F HX  93
ST SIMONS      MOSUNNY   87  76  69 SE8       30.07F HX  97
FT STEWART     MOSUNNY   84  75  74 SE6       30.05F THUNDER HX  92
ALBANY         LGT RAIN  86  76  71 NE3       30.09F HX  96
HUNTER AFB     MOSUNNY   88  76  67 SE6       30.04F HX  99
MOODY AFB      MOSUNNY   91  70  51 CALM      30.06F HX  96
BRUNSWICK      LGT RAIN  86  73  66 S5        30.08F HX  93


CITY           SKY/WX    TMP DP  RH WIND       PRES   REMARKS
BAINBRIDGE*    CLOUDY    86  77  74 S8        30.08F HX  97
MOULTRIE*      MOSUNNY   86  72  62 CALM      30.08F HX  92
VIDALIA*       MOSUNNY   91  70  49 NW3       30.07F HX  97
WAYCROSS*      PTSUNNY   92  68  45 W5        30.06F HX  96
DOUGLAS*       PTSUNNY   88  70  55 CALM      30.08F HX  92
$$



USA.gov is the U.S. government's official web portal to all federal, state and local government web resources and services.